Location: Tom
(33.0437°N, 96.9452°W)
Time: 07:19:13
(UTC-06:00)

N. Korean satellite - Pass Details

Date: 01 February 2019
Orbit: 457 x 510 km, 97.2° (Epoch: 18 February)

Event Time Altitude Azimuth Distance (km) Brightness Sun altitude
Rises 18:35:51 0° 192° (SSW) 2,591 10.7 -8.0°
Reaches altitude 10° 18:38:11 10° 206° (SSW) 1,716 10.0 -8.5°
Maximum altitude 18:41:18 26° 263° (W) 1,040 9.3 -9.1°
Drops below altitude 10° 18:44:28 10° 321° (NW) 1,732 9.7 -9.8°
Sets 18:46:49 0° 335° (NNW) 2,621 10.4 -10.2°
